| time (UTC) | temp F | wind direction | speed knots | gust knots | rain 1hr in | rain 24hr in | rain mn in | humidity % | barometer mb |
| 20260506095640 | 40 | 16 | 1.7 | 3.5 | 0.00 | 0.00 | 0.00 | 80 | 1014.6 |
| 20260506095050 | 40 | 15 | 1.7 | 2.6 | 0.00 | 0.00 | 0.00 | 80 | 1014.6 |
| 20260506094454 | 41 | 15 | 0.0 | 5.2 | 0.00 | 0.00 | 0.00 | 79 | 1015.0 |
| 20260506093923 | 41 | 15 | 1.7 | 2.6 | 0.00 | 0.00 | 0.00 | 79 | 1014.6 |
| 20260506093353 | 41 | 14 | 1.7 | 2.6 | 0.00 | 0.00 | 0.00 | 78 | 1014.6 |
| 20260506093033 | 41 | 12 | 1.7 | 2.6 | 0.00 | 0.00 | 0.00 | 78 | 1014.6 |
| 20260506092151 | 41 | 11 | 1.7 | 5.2 | 0.00 | 0.00 | 0.00 | 78 | 1015.0 |
| 20260506091553 | 42 | 11 | 0.9 | 5.2 | 0.00 | 0.00 | 0.00 | 77 | 1014.6 |
| 20260506090951 | 42 | 11 | 0.9 | 3.5 | 0.00 | 0.00 | 0.00 | 77 | 1015.0 |
| 20260506090347 | 42 | 10 | 1.7 | 6.1 | 0.00 | 0.00 | 0.00 | 77 | 1014.6 |
| 20260506085805 | 43 | 38 | 3.5 | 6.1 | 0.00 | 0.00 | 0.00 | 77 | 1014.3 |
| 20260506085210 | 44 | 45 | 0.0 | 5.2 | 0.00 | 0.00 | 0.00 | 77 | 1014.3 |
| 20260506084548 | 44 | 58 | 1.7 | 5.2 | 0.00 | 0.00 | 0.00 | 77 | 1014.3 |
| 20260506083953 | 44 | 68 | 1.7 | 3.5 | 0.00 | 0.00 | 0.00 | 76 | 1013.9 |
| 20260506083357 | 44 | 77 | 1.7 | 5.2 | 0.00 | 0.00 | 0.00 | 76 | 1013.9 |
| 20260506082748 | 45 | 70 | 3.5 | 7.8 | 0.00 | 0.00 | 0.00 | 75 | 1013.6 |
| 20260506082150 | 45 | 69 | 1.7 | 7.8 | 0.00 | 0.00 | 0.00 | 75 | 1013.6 |
| 20260506081602 | 45 | 68 | 2.6 | 7.8 | 0.00 | 0.00 | 0.00 | 75 | 1013.3 |
| 20260506080949 | 45 | 64 | 1.7 | 3.5 | 0.00 | 0.00 | 0.00 | 74 | 1013.3 |
| 20260506080348 | 45 | 78 | 1.7 | 5.2 | 0.00 | 0.00 | 0.00 | 73 | 1013.6 |
| 20260506073344 | 46 | 23 | 1.7 | 5.2 | 0.00 | 0.00 | 0.00 | 72 | 1013.3 |
| 20260506072758 | 47 | 65 | 1.7 | 5.2 | 0.00 | 0.00 | 0.00 | 71 | 1013.3 |
| 20260506072654 | 47 | 22 | 2.6 | 5.2 | 0.00 | 0.00 | 0.00 | 71 | 1012.9 |
| 20260506071545 | 47 | 75 | 2.6 | 6.1 | 0.00 | 0.00 | 0.00 | 70 | 1013.3 |
| 20260506070952 | 47 | 27 | 4.3 | 6.1 | 0.00 | 0.00 | 0.00 | 70 | 1013.6 |
| 20260506070432 | 47 | 40 | 2.6 | 7.0 | 0.00 | 0.00 | 0.00 | 69 | 1013.3 |
| 20260506062512 | 51 | 120 | 0.0 | 0.9 | 0.00 | 0.00 | 0.00 | 65 | 1012.9 |
| 20260506061646 | 52 | 137 | 0.0 | 5.2 | 0.00 | 0.00 | 0.00 | 64 | 1012.9 |
| 20260506061039 | 51 | 116 | 0.0 | 2.6 | 0.00 | 0.00 | 0.00 | 64 | 1012.6 |
| 20260506060445 | 52 | 82 | 0.0 | 2.6 | 0.00 | 0.00 | 0.00 | 64 | 1012.6 |
| 20260506051049 | 55 | 126 | 1.7 | 2.6 | 0.00 | 0.00 | 0.00 | 59 | 1012.9 |
| 20260506050444 | 55 | 116 | 0.0 | 2.6 | 0.00 | 0.00 | 0.00 | 58 | 1012.6 |
| 20260506044916 | 55 | 105 | 0.0 | 5.2 | 0.00 | 0.00 | 0.00 | 57 | 1012.6 |
| 20260506044050 | 55 | 102 | 0.0 | 6.1 | 0.00 | 0.00 | 0.00 | 56 | 1012.6 |
| 20260506043453 | 55 | 85 | 0.0 | 5.2 | 0.00 | 0.00 | 0.00 | 56 | 1012.6 |
| 20260506042850 | 55 | 114 | 3.5 | 8.7 | 0.00 | 0.00 | 0.00 | 56 | 1012.6 |
| 20260506042249 | 55 | 54 | 0.9 | 3.5 | 0.00 | 0.00 | 0.00 | 55 | 1012.6 |
| 20260506042135 | 55 | 63 | 0.0 | 7.0 | 0.00 | 0.00 | 0.00 | 55 | 1012.6 |
| 20260506041103 | 55 | 108 | 3.5 | 7.8 | 0.00 | 0.00 | 0.00 | 55 | 1012.6 |
| 20260506040445 | 55 | 85 | 1.7 | 9.6 | 0.00 | 0.00 | 0.00 | 55 | 1012.6 |
| 20260506040126 | 55 | 106 | 0.9 | 2.6 | 0.00 | 0.00 | 0.00 | 54 | 1012.6 |
| 20260506035254 | 55 | 84 | 0.0 | 1.7 | 0.00 | 0.00 | 0.00 | 54 | 1012.9 |
| 20260506034645 | 55 | 90 | 0.0 | 6.1 | 0.00 | 0.00 | 0.00 | 54 | 1012.6 |
| 20260506034321 | 55 | 79 | 0.0 | 0.9 | 0.00 | 0.00 | 0.00 | 53 | 1012.6 |
| 20260506033934 | 56 | 50 | 0.0 | 2.6 | 0.00 | 0.00 | 0.00 | 52 | 1012.6 |
| 20260506032950 | 56 | 18 | 0.9 | 2.6 | 0.00 | 0.00 | 0.00 | 52 | 1012.3 |
| 20260506032347 | 56 | 80 | 0.0 | 5.2 | 0.00 | 0.00 | 0.00 | 52 | 1012.3 |
| 20260506031735 | 56 | 84 | 0.0 | 0.9 | 0.00 | 0.00 | 0.00 | 52 | 1012.3 |
| 20260506031149 | 56 | 100 | 0.0 | 7.8 | 0.00 | 0.00 | 0.00 | 51 | 1011.9 |
| 20260506031037 | 57 | 20 | 2.6 | 11.3 | 0.00 | 0.00 | 0.00 | 51 | 1011.9 |
| 20260506025949 | 57 | 95 | 5.2 | 11.3 | 0.00 | 0.00 | 0.00 | 51 | 1011.6 |
| 20260506025318 | 57 | 70 | 0.0 | 5.2 | 0.00 | 0.00 | 0.00 | 51 | 1011.2 |
| 20260506024756 | 57 | 31 | 1.7 | 5.2 | 0.00 | 0.00 | 0.00 | 52 | 1011.6 |
| 20260506024149 | 58 | 61 | 0.0 | 3.5 | 0.00 | 0.00 | 0.00 | 52 | 1011.6 |
| 20260506023549 | 58 | 56 | 0.0 | 6.1 | 0.00 | 0.00 | 0.00 | 50 | 1011.2 |
| 20260506023204 | 59 | 93 | 0.9 | 3.5 | 0.00 | 0.00 | 0.00 | 49 | 1011.2 |
| 20260506022346 | 59 | 24 | 1.7 | 7.8 | 0.00 | 0.00 | 0.00 | 48 | 1011.2 |
| 20260506022021 | 60 | 72 | 0.0 | 7.8 | 0.00 | 0.00 | 0.00 | 47 | 1010.9 |
| 20260506021142 | 61 | 7 | 4.3 | 7.8 | 0.00 | 0.00 | 0.00 | 46 | 1010.9 |
| 20260506020550 | 62 | 19 | 2.6 | 7.8 | 0.00 | 0.00 | 0.00 | 43 | 1010.9 |
| 20260506015950 | 63 | 49 | 1.7 | 9.6 | 0.00 | 0.00 | 0.00 | 42 | 1010.6 |
| 20260506015845 | 64 | 23 | 3.5 | 7.8 | 0.00 | 0.00 | 0.00 | 39 | 1010.6 |
| 20260506015038 | 64 | 11 | 0.0 | 0.9 | 0.00 | 0.00 | 0.00 | 40 | 1010.6 |
| 20260506014356 | 64 | 350 | 0.0 | 7.0 | 0.00 | 0.00 | 0.00 | 44 | 1010.2 |
| 20260506013549 | 64 | 332 | 0.9 | 7.0 | 0.00 | 0.00 | 0.00 | 45 | 1010.2 |
| 20260506012949 | 64 | 333 | 0.0 | 8.7 | 0.00 | 0.00 | 0.00 | 45 | 1010.2 |
| 20260506012338 | 64 | 337 | 0.0 | 7.0 | 0.00 | 0.00 | 0.00 | 45 | 1010.2 |
| 20260506012019 | 65 | 328 | 0.0 | 7.0 | 0.00 | 0.00 | 0.00 | 44 | 1010.2 |
| 20260506011233 | 65 | 338 | 0.9 | 9.6 | 0.00 | 0.00 | 0.00 | 41 | 1009.9 |
| 20260506010646 | 67 | 297 | 5.2 | 8.7 | 0.00 | 0.00 | 0.00 | 37 | 1009.9 |
| 20260506010312 | 74 | 265 | 1.7 | 7.0 | 0.00 | 0.00 | 0.00 | 22 | 1009.9 |
| 20260506005502 | 74 | 227 | 0.0 | 0.0 | 0.00 | 0.00 | 0.00 | 22 | 1009.5 |
| 20260506004851 | 74 | 269 | 0.0 | 0.0 | 0.00 | 0.00 | 0.00 | 22 | 1009.2 |
| 20260506004258 | 74 | 184 | 0.0 | 5.2 | 0.00 | 0.00 | 0.00 | 24 | 1009.2 |
| 20260506003710 | 75 | 220 | 2.6 | 8.7 | 0.00 | 0.00 | 0.00 | 25 | 1009.2 |
| 20260506003050 | 75 | 224 | 3.5 | 8.7 | 0.00 | 0.00 | 0.00 | 26 | 1008.9 |
| 20260506002451 | 75 | 229 | 6.1 | 12.2 | 0.00 | 0.00 | 0.00 | 26 | 1008.9 |
| 20260506001852 | 75 | 242 | 3.5 | 13.0 | 0.00 | 0.00 | 0.00 | 26 | 1008.9 |
| 20260506001250 | 75 | 170 | 3.5 | 7.8 | 0.00 | 0.00 | 0.00 | 25 | 1008.9 |
| 20260506000641 | 75 | 210 | 1.7 | 8.7 | 0.00 | 0.00 | 0.00 | 25 | 1008.9 |
| 20260506000100 | 75 | 203 | 0.9 | 9.6 | 0.00 | 0.00 | 0.00 | 26 | 1008.9 |
| 20260505235504 | 76 | 213 | 7.8 | 9.6 | 0.00 | 0.00 | 0.00 | 25 | 1009.2 |
| 20260505235210 | 76 | 251 | 3.5 | 7.8 | 0.00 | 0.00 | 0.00 | 26 | 1008.9 |
| 20260505234827 | 76 | 198 | 1.7 | 7.0 | 0.00 | 0.00 | 0.00 | 26 | 1008.9 |
| 20260505233752 | 76 | 208 | 0.0 | 7.0 | 0.00 | 0.00 | 0.00 | 26 | 1008.9 |
| 20260505233149 | 75 | 206 | 1.7 | 7.0 | 0.00 | 0.00 | 0.00 | 26 | 1008.9 |
| 20260505232551 | 75 | 206 | 4.3 | 8.7 | 0.00 | 0.00 | 0.00 | 27 | 1009.2 |
| 20260505231946 | 75 | 202 | 3.5 | 8.7 | 0.00 | 0.00 | 0.00 | 26 | 1008.9 |
| 20260505231358 | 76 | 203 | 0.9 | 1.7 | 0.00 | 0.00 | 0.00 | 26 | 1008.9 |
| 20260505230756 | 76 | 220 | 0.9 | 6.1 | 0.00 | 0.00 | 0.00 | 26 | 1008.9 |
| 20260505230417 | 76 | 213 | 0.0 | 6.1 | 0.00 | 0.00 | 0.00 | 26 | 1008.9 |
| 20260505225815 | 76 | 204 | 0.0 | 0.0 | 0.00 | 0.00 | 0.00 | 27 | 1009.2 |
| 20260505225221 | 75 | 193 | 0.0 | 0.0 | 0.00 | 0.00 | 0.00 | 28 | 1009.2 |
| 20260505224346 | 76 | 199 | 0.0 | 0.9 | 0.00 | 0.00 | 0.00 | 27 | 1009.2 |
| 20260505223750 | 75 | 206 | 0.0 | 0.0 | 0.00 | 0.00 | 0.00 | 28 | 1009.5 |
| 20260505223147 | 74 | 186 | 0.0 | 0.9 | 0.00 | 0.00 | 0.00 | 29 | 1009.5 |
| 20260505222549 | 74 | 187 | 0.0 | 0.9 | 0.00 | 0.00 | 0.00 | 30 | 1009.5 |
| 20260505221954 | 75 | 209 | 0.0 | 0.0 | 0.00 | 0.00 | 0.00 | 30 | 1009.5 |
| 20260505221834 | 76 | 168 | 0.0 | 0.0 | 0.00 | 0.00 | 0.00 | 29 | 1009.9 |
| 20260505220753 | 75 | 194 | 0.0 | 2.6 | 0.00 | 0.00 | 0.00 | 29 | 1009.9 |
| 20260505220146 | 74 | 200 | 0.0 | 0.0 | 0.00 | 0.00 | 0.00 | 30 | 1010.2 |
| 20260505215547 | 74 | 198 | 0.0 | 0.0 | 0.00 | 0.00 | 0.00 | 30 | 1010.2 |
| 20260505214942 | 74 | 189 | 0.0 | 0.0 | 0.00 | 0.00 | 0.00 | 30 | 1010.2 |
| 20260505214608 | 74 | 144 | 0.0 | 0.9 | 0.00 | 0.00 | 0.00 | 31 | 1010.2 |
| 20260505213753 | 74 | 203 | 0.0 | 0.0 | 0.00 | 0.00 | 0.00 | 30 | 1010.6 |
| 20260505213146 | 75 | 195 | 0.0 | 0.9 | 0.00 | 0.00 | 0.00 | 29 | 1010.6 |
| 20260505212543 | 76 | 189 | 0.0 | 0.9 | 0.00 | 0.00 | 0.00 | 29 | 1010.6 |
| 20260505211947 | 74 | 216 | 0.0 | 0.9 | 0.00 | 0.00 | 0.00 | 30 | 1010.6 |
| 20260505211352 | 75 | 190 | 0.0 | 0.9 | 0.00 | 0.00 | 0.00 | 30 | 1010.6 |
| 20260505210751 | 74 | 272 | 0.0 | 0.9 | 0.00 | 0.00 | 0.00 | 30 | 1010.6 |
| 20260505210152 | 73 | 226 | 0.0 | 0.9 | 0.00 | 0.00 | 0.00 | 31 | 1010.9 |
| 20260505205550 | 73 | 219 | 0.0 | 0.0 | 0.00 | 0.00 | 0.00 | 30 | 1010.6 |
| 20260505204946 | 74 | 202 | 0.0 | 0.0 | 0.00 | 0.00 | 0.00 | 30 | 1011.2 |
| 20260505204321 | 74 | 238 | 0.0 | 0.0 | 0.00 | 0.00 | 0.00 | 31 | 1011.2 |
| 20260505203658 | 74 | 278 | 0.0 | 0.0 | 0.00 | 0.00 | 0.00 | 31 | 1011.6 |
| 20260505203323 | 74 | 258 | 0.0 | 0.0 | 0.00 | 0.00 | 0.00 | 31 | 1011.6 |
| 20260505202510 | 73 | 239 | 0.0 | 1.7 | 0.00 | 0.00 | 0.00 | 32 | 1011.9 |
| 20260505201851 | 73 | 298 | 0.0 | 3.5 | 0.00 | 0.00 | 0.00 | 33 | 1011.9 |
| 20260505201508 | 73 | 211 | 0.0 | 2.6 | 0.00 | 0.00 | 0.00 | 30 | 1012.3 |
| 20260505200659 | 73 | 214 | 0.9 | 2.6 | 0.00 | 0.00 | 0.00 | 29 | 1011.9 |
| 20260505200054 | 73 | 153 | 0.0 | 0.0 | 0.00 | 0.00 | 0.00 | 30 | 1012.3 |
| 20260505195510 | 73 | 197 | 0.0 | 0.0 | 0.00 | 0.00 | 0.00 | 28 | 1012.3 |
| 20260505194908 | 73 | 180 | 0.0 | 0.0 | 0.00 | 0.00 | 0.00 | 29 | 1011.6 |
| 20260505194241 | 73 | 212 | 0.0 | 0.0 | 0.00 | 0.00 | 0.00 | 29 | 1011.9 |
| 20260505193701 | 72 | 162 | 0.0 | 0.0 | 0.00 | 0.00 | 0.00 | 29 | 1012.3 |
| 20260505193110 | 72 | 140 | 0.0 | 0.9 | 0.00 | 0.00 | 0.00 | 29 | 1011.9 |
| 20260505192446 | 72 | 207 | 0.0 | 0.0 | 0.00 | 0.00 | 0.00 | 29 | 1012.3 |
| 20260505191852 | 71 | 126 | 0.0 | 1.7 | 0.00 | 0.00 | 0.00 | 31 | 1012.3 |
| 20260505191303 | 71 | 156 | 0.9 | 1.7 | 0.00 | 0.00 | 0.00 | 29 | 1012.3 |
| 20260505190651 | 71 | 114 | 0.0 | 0.0 | 0.00 | 0.00 | 0.00 | 29 | 1012.3 |
| 20260505190051 | 71 | 117 | 0.0 | 0.0 | 0.00 | 0.00 | 0.00 | 30 | 1012.3 |
| 20260505185512 | 73 | 346 | 0.0 | 0.0 | 0.00 | 0.00 | 0.00 | 29 | 1012.3 |
| 20260505184850 | 72 | 85 | 0.0 | 0.0 | 0.00 | 0.00 | 0.00 | 29 | 1011.9 |
| 20260505184253 | 71 | 280 | 0.0 | 0.0 | 0.00 | 0.00 | 0.00 | 30 | 1012.3 |
| 20260505183642 | 70 | 357 | 0.0 | 0.0 | 0.00 | 0.00 | 0.00 | 30 | 1012.3 |
| 20260505183056 | 69 | 137 | 0.0 | 0.0 | 0.00 | 0.00 | 0.00 | 31 | 1012.6 |
| 20260505182448 | 69 | 117 | 0.0 | 0.0 | 0.00 | 0.00 | 0.00 | 30 | 1012.6 |
| 20260505181858 | 69 | 192 | 0.0 | 0.0 | 0.00 | 0.00 | 0.00 | 30 | 1012.9 |
| 20260505181252 | 69 | 347 | 0.0 | 0.0 | 0.00 | 0.00 | 0.00 | 31 | 1012.9 |
| 20260505180648 | 68 | 347 | 0.0 | 3.5 | 0.00 | 0.00 | 0.00 | 31 | 1012.6 |
| 20260505180057 | 67 | 25 | 0.0 | 6.1 | 0.00 | 0.00 | 0.00 | 34 | 1012.9 |
| 20260505175712 | 67 | 342 | 3.5 | 6.1 | 0.00 | 0.00 | 0.00 | 33 | 1012.9 |
| 20260505174907 | 68 | 297 | 0.0 | 0.9 | 0.00 | 0.00 | 0.00 | 33 | 1012.9 |
| 20260505174248 | 67 | 9 | 0.0 | 1.7 | 0.00 | 0.00 | 0.00 | 34 | 1012.9 |
| 20260505173646 | 67 | 119 | 0.0 | 0.9 | 0.00 | 0.00 | 0.00 | 34 | 1012.9 |
| 20260505173142 | 67 | 25 | 0.0 | 2.6 | 0.00 | 0.00 | 0.00 | 34 | 1013.3 |
| 20260505172551 | 66 | 358 | 0.9 | 2.6 | 0.00 | 0.00 | 0.00 | 35 | 1012.9 |
| 20260505172223 | 67 | 341 | 0.0 | 0.0 | 0.00 | 0.00 | 0.00 | 35 | 1012.9 |
| 20260505171353 | 66 | 81 | 0.0 | 2.6 | 0.00 | 0.00 | 0.00 | 35 | 1012.9 |
| 20260505170753 | 67 | 3 | 0.0 | 0.9 | 0.00 | 0.00 | 0.00 | 34 | 1012.9 |
| 20260505170146 | 67 | 37 | 0.0 | 0.0 | 0.00 | 0.00 | 0.00 | 34 | 1012.6 |
| 20260505165546 | 65 | 60 | 0.0 | 0.0 | 0.00 | 0.00 | 0.00 | 36 | 1012.6 |
| 20260505164938 | 66 | 16 | 0.0 | 0.0 | 0.00 | 0.00 | 0.00 | 36 | 1012.6 |
| 20260505164332 | 66 | 113 | 0.0 | 0.0 | 0.00 | 0.00 | 0.00 | 37 | 1012.9 |
| 20260505164018 | 65 | 57 | 0.0 | 0.0 | 0.00 | 0.00 | 0.00 | 38 | 1012.9 |
| 20260505163156 | 65 | 73 | 0.0 | 0.0 | 0.00 | 0.00 | 0.00 | 37 | 1012.9 |
| 20260505162546 | 63 | 83 | 0.0 | 6.1 | 0.00 | 0.00 | 0.00 | 39 | 1012.9 |
| 20260505161952 | 63 | 9 | 3.5 | 6.1 | 0.00 | 0.00 | 0.00 | 40 | 1013.3 |
| 20260505161340 | 62 | 344 | 0.0 | 1.7 | 0.00 | 0.00 | 0.00 | 40 | 1012.6 |
| 20260505160755 | 62 | 12 | 0.0 | 1.7 | 0.00 | 0.00 | 0.00 | 41 | 1013.3 |
| 20260505160147 | 62 | 13 | 0.0 | 7.8 | 0.00 | 0.00 | 0.00 | 41 | 1013.3 |
| 20260505153240 | 60 | 20 | 0.9 | 2.6 | 0.00 | 0.00 | 0.00 | 44 | 1012.9 |
| 20260505152904 | 61 | 352 | 0.9 | 0.9 | 0.00 | 0.00 | 0.00 | 44 | 1012.9 |
| 20260505152050 | 60 | 9 | 0.0 | 0.9 | 0.00 | 0.00 | 0.00 | 45 | 1013.3 |
| 20260505151711 | 59 | 36 | 0.0 | 3.5 | 0.00 | 0.00 | 0.00 | 45 | 1012.9 |
| 20260505150846 | 59 | 41 | 0.0 | 5.2 | 0.00 | 0.00 | 0.00 | 47 | 1013.3 |
| 20260505150248 | 58 | 345 | 0.0 | 1.7 | 0.00 | 0.00 | 0.00 | 47 | 1013.3 |
| 20260505140615 | 56 | 336 | 0.0 | 7.8 | 0.00 | 0.00 | 0.00 | 54 | 1011.9 |
| 20260505124910 | 57 | 345 | 0.0 | 2.6 | 0.00 | 0.00 | 0.00 | 52 | 1011.2 |
| 20260505124721 | 58 | 333 | 0.9 | 5.2 | 0.00 | 0.00 | 0.00 | 50 | 1011.2 |
| 20260505123658 | 58 | 347 | 0.9 | 2.6 | 0.00 | 0.00 | 0.00 | 49 | 1010.9 |
| 20260505123110 | 59 | 11 | 0.0 | 1.7 | 0.00 | 0.00 | 0.00 | 47 | 1011.2 |
| 20260505122453 | 59 | 2 | 0.0 | 8.7 | 0.00 | 0.00 | 0.00 | 45 | 1010.9 |
| 20260505121904 | 60 | 16 | 0.0 | 7.8 | 0.00 | 0.00 | 0.00 | 43 | 1010.9 |
| 20260505121256 | 61 | 8 | 1.7 | 2.6 | 0.00 | 0.00 | 0.00 | 40 | 1010.9 |
| 20260505120648 | 64 | 345 | 0.0 | 0.9 | 0.00 | 0.00 | 0.00 | 31 | 1010.6 |
| 20260505120109 | 64 | 269 | 0.0 | 0.0 | 0.00 | 0.00 | 0.00 | 31 | 1010.6 |
| 20260505115449 | 64 | 287 | 0.0 | 1.7 | 0.00 | 0.00 | 0.00 | 32 | 1010.2 |
| 20260505114848 | 64 | 335 | 0.0 | 0.0 | 0.00 | 0.00 | 0.00 | 31 | 1010.6 |
| 20260505114256 | 63 | 253 | 0.0 | 0.9 | 0.00 | 0.00 | 0.00 | 32 | 1009.5 |
| 20260505113650 | 63 | 344 | 0.0 | 0.9 | 0.00 | 0.00 | 0.00 | 32 | 1010.6 |
| 20260505113100 | 64 | 242 | 0.0 | 0.0 | 0.00 | 0.00 | 0.00 | 31 | 1009.9 |
| 20260505112453 | 64 | 237 | 0.0 | 0.0 | 0.00 | 0.00 | 0.00 | 31 | 1009.5 |
| 20260505111853 | 64 | 260 | 0.0 | 0.0 | 0.00 | 0.00 | 0.00 | 31 | 1009.9 |
| 20260505111252 | 64 | 235 | 0.0 | 0.9 | 0.00 | 0.00 | 0.00 | 30 | 1009.5 |
| 20260505111120 | 64 | 218 | 0.0 | 0.0 | 0.00 | 0.00 | 0.00 | 30 | 1009.5 |
| 20260505110109 | 64 | 187 | 0.0 | 0.0 | 0.00 | 0.00 | 0.00 | 30 | 1009.9 |
| 20260505101939 | 63 | 224 | 0.0 | 0.0 | 0.00 | 0.00 | 0.00 | 30 | 1009.5 |
| 20260505101357 | 63 | 204 | 0.0 | 0.0 | 0.00 | 0.00 | 0.00 | 30 | 1009.9 |
| 20260505100751 | 63 | 232 | 0.0 | 0.0 | 0.00 | 0.00 | 0.00 | 30 | 1009.5 |